| time (UTC) | temp C | wind direction | speed KPH | gust KPH | rain 1hr cm | rain 24hr cm | rain mn cm | humidity % | barometer mb |
| 20260507091546 | 1 | 231 | 0.0 | 3.2 | 0.00 | 0.00 | 0.00 | 70 | 1014.3 |
| 20260507090041 | 1 | 0 | 1.6 | 4.8 | 0.00 | 0.00 | 0.00 | 69 | 1014.3 |
| 20260507084548 | 1 | 253 | 3.2 | 6.4 | 0.00 | 0.00 | 0.00 | 69 | 1014.6 |
| 20260507083036 | 1 | 260 | 3.2 | 6.4 | 0.00 | 0.00 | 0.00 | 69 | 1014.5 |
| 20260507081540 | 1 | 233 | 0.0 | 1.6 | 0.00 | 0.00 | 0.00 | 69 | 1014.2 |
| 20260507080044 | 1 | 235 | 1.6 | 3.2 | 0.00 | 0.00 | 0.00 | 70 | 1014.3 |
| 20260507074534 | 1 | 0 | 0.0 | 3.2 | 0.00 | 0.00 | 0.00 | 69 | 1014.5 |
| 20260507073036 | 1 | 0 | 0.0 | 3.2 | 0.00 | 0.00 | 0.00 | 69 | 1014.5 |
| 20260507071535 | 1 | 236 | 0.0 | 0.0 | 0.00 | 0.00 | 0.00 | 70 | 1014.6 |
| 20260507070035 | 2 | 0 | 0.0 | 1.6 | 0.00 | 0.00 | 0.00 | 67 | 1014.8 |
| 20260507064535 | 2 | 236 | 0.0 | 3.2 | 0.00 | 0.00 | 0.00 | 67 | 1015.2 |
| 20260507063038 | 2 | 221 | 0.0 | 3.2 | 0.00 | 0.00 | 0.00 | 66 | 1015.2 |
| 20260507061538 | 3 | 246 | 0.0 | 1.6 | 0.00 | 0.00 | 0.00 | 64 | 1015.1 |
| 20260507060036 | 3 | 262 | 0.0 | 3.2 | 0.00 | 0.00 | 0.00 | 61 | 1015.1 |
| 20260507054539 | 3 | 305 | 1.6 | 8.0 | 0.00 | 0.00 | 0.00 | 60 | 1015.2 |
| 20260507053033 | 3 | 0 | 0.0 | 3.2 | 0.00 | 0.00 | 0.00 | 60 | 1015.2 |
| 20260507051534 | 3 | 0 | 0.0 | 1.6 | 0.00 | 0.00 | 0.00 | 60 | 1015.2 |
| 20260507050038 | 4 | 0 | 0.0 | 3.2 | 0.00 | 0.00 | 0.00 | 58 | 1015.2 |
| 20260507044538 | 5 | 0 | 0.0 | 1.6 | 0.00 | 0.00 | 0.00 | 57 | 1015.4 |
| 20260507043036 | 5 | 305 | 1.6 | 8.0 | 0.00 | 0.00 | 0.00 | 56 | 1015.3 |
| 20260507041536 | 5 | 328 | 3.2 | 8.0 | 0.00 | 0.00 | 0.00 | 55 | 1015.4 |
| 20260507040043 | 5 | 332 | 3.2 | 9.7 | 0.00 | 0.00 | 0.00 | 54 | 1015.4 |
| 20260507034537 | 6 | 295 | 6.4 | 11.3 | 0.00 | 0.00 | 0.00 | 53 | 1015.4 |
| 20260507033038 | 6 | 324 | 4.8 | 12.9 | 0.00 | 0.00 | 0.00 | 52 | 1015.6 |
| 20260507031537 | 6 | 290 | 6.4 | 16.1 | 0.00 | 0.00 | 0.00 | 51 | 1015.4 |
| 20260507030036 | 6 | 297 | 4.8 | 14.5 | 0.00 | 0.00 | 0.00 | 50 | 1015.4 |
| 20260507024533 | 7 | 308 | 6.4 | 17.7 | 0.00 | 0.00 | 0.00 | 49 | 1015.2 |
| 20260507023046 | 7 | 295 | 6.4 | 17.7 | 0.00 | 0.00 | 0.00 | 48 | 1015.1 |
| 20260507021544 | 7 | 266 | 8.0 | 17.7 | 0.00 | 0.00 | 0.00 | 48 | 1014.9 |
| 20260507020059 | 7 | 285 | 4.8 | 17.7 | 0.00 | 0.00 | 0.00 | 47 | 1014.7 |
| 20260507014537 | 8 | 285 | 8.0 | 24.1 | 0.00 | 0.00 | 0.00 | 46 | 1014.5 |
| 20260507013047 | 8 | 293 | 8.0 | 20.9 | 0.00 | 0.00 | 0.00 | 45 | 1014.2 |
| 20260507011536 | 8 | 295 | 6.4 | 20.9 | 0.00 | 0.00 | 0.00 | 45 | 1014.1 |
| 20260507010042 | 9 | 323 | 6.4 | 17.7 | 0.00 | 0.00 | 0.00 | 45 | 1013.9 |
| 20260507004551 | 9 | 261 | 8.0 | 16.1 | 0.00 | 0.00 | 0.00 | 43 | 1013.7 |
| 20260507003044 | 10 | 294 | 11.3 | 19.3 | 0.00 | 0.00 | 0.00 | 43 | 1013.6 |
| 20260507001543 | 10 | 307 | 4.8 | 19.3 | 0.00 | 0.00 | 0.00 | 43 | 1013.4 |
| 20260507000041 | 10 | 315 | 9.7 | 22.5 | 0.00 | 0.00 | 0.00 | 41 | 1013.3 |
| 20260506234544 | 10 | 231 | 4.8 | 19.3 | 0.00 | 0.00 | 0.00 | 42 | 1013.4 |
| 20260506233044 | 10 | 160 | 4.8 | 14.5 | 0.00 | 0.00 | 0.00 | 41 | 1013.2 |
| 20260506231539 | 10 | 299 | 8.0 | 22.5 | 0.00 | 0.00 | 0.00 | 41 | 1013.1 |
| 20260506230045 | 10 | 322 | 9.7 | 19.3 | 0.00 | 0.00 | 0.00 | 39 | 1013.2 |
| 20260506224536 | 10 | 293 | 6.4 | 17.7 | 0.00 | 0.00 | 0.00 | 41 | 1013.1 |
| 20260506223044 | 10 | 307 | 8.0 | 17.7 | 0.00 | 0.00 | 0.00 | 39 | 1012.9 |
| 20260506221539 | 10 | 219 | 8.0 | 17.7 | 0.00 | 0.00 | 0.00 | 40 | 1012.8 |
| 20260506220039 | 11 | 290 | 6.4 | 20.9 | 0.00 | 0.00 | 0.00 | 39 | 1012.8 |
| 20260506214541 | 11 | 328 | 3.2 | 19.3 | 0.00 | 0.00 | 0.00 | 39 | 1012.7 |
| 20260506213044 | 11 | 253 | 6.4 | 16.1 | 0.00 | 0.00 | 0.00 | 39 | 1012.9 |
| 20260506211536 | 11 | 233 | 6.4 | 17.7 | 0.00 | 0.00 | 0.00 | 39 | 1012.7 |
| 20260506210041 | 11 | 271 | 6.4 | 20.9 | 0.00 | 0.00 | 0.00 | 38 | 1012.7 |
| 20260506204538 | 11 | 245 | 4.8 | 14.5 | 0.00 | 0.00 | 0.00 | 39 | 1012.7 |
| 20260506203035 | 11 | 18 | 6.4 | 20.9 | 0.00 | 0.00 | 0.00 | 39 | 1012.7 |
| 20260506201536 | 11 | 268 | 9.7 | 17.7 | 0.00 | 0.00 | 0.00 | 39 | 1013.0 |
| 20260506200035 | 11 | 256 | 4.8 | 16.1 | 0.00 | 0.00 | 0.00 | 39 | 1013.0 |
| 20260506194539 | 11 | 255 | 4.8 | 14.5 | 0.00 | 0.00 | 0.00 | 39 | 1012.9 |
| 20260506193040 | 11 | 316 | 6.4 | 20.9 | 0.00 | 0.00 | 0.00 | 39 | 1012.8 |
| 20260506191541 | 11 | 294 | 8.0 | 17.7 | 0.00 | 0.00 | 0.00 | 39 | 1013.0 |
| 20260506190037 | 11 | 272 | 3.2 | 16.1 | 0.00 | 0.00 | 0.00 | 40 | 1013.2 |
| 20260506184547 | 11 | 274 | 8.0 | 17.7 | 0.00 | 0.00 | 0.00 | 39 | 1013.2 |
| 20260506183053 | 11 | 233 | 8.0 | 20.9 | 0.00 | 0.00 | 0.00 | 39 | 1013.1 |
| 20260506181608 | 11 | 204 | 4.8 | 20.9 | 0.00 | 0.00 | 0.00 | 41 | 1012.9 |
| 20260506180042 | 11 | 276 | 8.0 | 16.1 | 0.00 | 0.00 | 0.00 | 41 | 1012.9 |
| 20260506174541 | 11 | 263 | 8.0 | 17.7 | 0.00 | 0.00 | 0.00 | 41 | 1013.1 |
| 20260506173053 | 10 | 256 | 6.4 | 14.5 | 0.00 | 0.00 | 0.00 | 40 | 1013.2 |
| 20260506171535 | 10 | 325 | 8.0 | 24.1 | 0.00 | 0.00 | 0.00 | 39 | 1013.2 |
| 20260506170042 | 11 | 322 | 8.0 | 14.5 | 0.00 | 0.00 | 0.00 | 39 | 1013.4 |
| 20260506164543 | 10 | 296 | 6.4 | 20.9 | 0.00 | 0.00 | 0.00 | 42 | 1013.6 |
| 20260506163040 | 10 | 238 | 8.0 | 20.9 | 0.00 | 0.00 | 0.00 | 43 | 1013.5 |
| 20260506161538 | 10 | 282 | 6.4 | 17.7 | 0.00 | 0.00 | 0.00 | 41 | 1013.4 |
| 20260506160037 | 10 | 287 | 6.4 | 19.3 | 0.00 | 0.00 | 0.00 | 40 | 1013.5 |
| 20260506154537 | 10 | 258 | 6.4 | 12.9 | 0.00 | 0.00 | 0.00 | 40 | 1013.6 |
| 20260506153059 | 10 | 308 | 6.4 | 17.7 | 0.00 | 0.00 | 0.00 | 40 | 1013.5 |
| 20260506151544 | 10 | 266 | 6.4 | 16.1 | 0.00 | 0.00 | 0.00 | 41 | 1013.6 |
| 20260506150047 | 10 | 311 | 6.4 | 14.5 | 0.00 | 0.00 | 0.00 | 41 | 1013.4 |
| 20260506144538 | 10 | 304 | 6.4 | 17.7 | 0.00 | 0.00 | 0.00 | 44 | 1013.3 |
| 20260506143036 | 10 | 233 | 8.0 | 17.7 | 0.00 | 0.00 | 0.00 | 42 | 1013.3 |
| 20260506141537 | 10 | 233 | 8.0 | 20.9 | 0.00 | 0.00 | 0.00 | 42 | 1013.4 |
| 20260506140039 | 9 | 297 | 4.8 | 20.9 | 0.00 | 0.00 | 0.00 | 44 | 1013.4 |
| 20260506134538 | 9 | 234 | 4.8 | 12.9 | 0.00 | 0.00 | 0.00 | 45 | 1013.3 |
| 20260506133037 | 8 | 156 | 4.8 | 16.1 | 0.00 | 0.00 | 0.00 | 46 | 1013.3 |
| 20260506131539 | 8 | 255 | 4.8 | 11.3 | 0.00 | 0.00 | 0.00 | 47 | 1013.1 |
| 20260506130032 | 7 | 274 | 3.2 | 9.7 | 0.00 | 0.00 | 0.00 | 52 | 1013.1 |
| 20260506124534 | 7 | 242 | 3.2 | 9.7 | 0.00 | 0.00 | 0.00 | 53 | 1013.0 |
| 20260506123039 | 6 | 282 | 1.6 | 8.0 | 0.00 | 0.00 | 0.00 | 56 | 1012.8 |
| 20260506121538 | 5 | 259 | 1.6 | 6.4 | 0.00 | 0.00 | 0.00 | 58 | 1012.9 |
| 20260506120039 | 5 | 253 | 0.0 | 3.2 | 0.00 | 0.00 | 0.00 | 62 | 1013.0 |
| 20260506114536 | 3 | 280 | 0.0 | 1.6 | 0.00 | 0.00 | 0.00 | 64 | 1012.7 |
| 20260506113043 | 2 | 0 | 0.0 | 0.0 | 0.00 | 0.00 | 0.00 | 70 | 1012.4 |
| 20260506111539 | 1 | 0 | 0.0 | 0.0 | 0.00 | 0.00 | 0.00 | 73 | 1012.4 |
| 20260506110038 | 1 | 0 | 0.0 | 0.0 | 0.00 | 0.00 | 0.00 | 75 | 1012.1 |
| 20260506104536 | 1 | 0 | 0.0 | 0.0 | 0.00 | 0.00 | 0.00 | 75 | 1012.0 |
| 20260506103039 | 1 | 0 | 0.0 | 0.0 | 0.00 | 0.00 | 0.00 | 75 | 1011.7 |
| 20260506101535 | 1 | 0 | 0.0 | 0.0 | 0.00 | 0.00 | 0.00 | 75 | 1011.8 |
| 20260506100039 | 1 | 0 | 0.0 | 0.0 | 0.00 | 0.00 | 0.00 | 74 | 1011.8 |
| 20260506094540 | 1 | 0 | 0.0 | 0.0 | 0.00 | 0.00 | 0.00 | 72 | 1011.9 |
| 20260506093037 | 1 | 0 | 0.0 | 0.0 | 0.00 | 0.00 | 0.00 | 72 | 1012.0 |